Weather History for Georgetown, SC

Change the Weather History Date:

Sunday, October 6, 2013

  Actual Average Record
Temperature  
Mean Temperature 73 °F -  
Max Temperature 82 °F 80 °F 82 °F (2012)
Min Temperature 64 °F 58 °F 42 °F (2010)
Cooling Degree Days 8    
Growing Degree Days 23 (Base 50)    
Moisture  
Dew Point 72 °F    
Average Humidity 92    
Maximum Humidity 100    
Minimum Humidity 70    
Precipitation  
Precipitation 0.06 in - - ()
Sea Level Pressure  
Sea Level Pressure 30.01 in    
Wind  
Wind Speed 3 mph (ESE)    
Max Wind Speed 12 mph    
Max Gust Speed -    
Visibility 8 miles    
Events Fog , Rain    
Averages and records for this station are not official NWS values.
T = Trace of Precipitation, MM = Missing Value Source: NWS Daily Summary

Daily Weather History Graph

Daily Weather History Graph

Search for Another Location

Airport:

Trip Planner

Search our weather history database for the weather conditions in past years. The results will help you decide how hot, cold, wet, or windy it might be!

Date:

Astronomy

Oct. 06, 2013 Rise Set
Actual Time 7:15 AM EDT 6:54 PM EDT
Civil Twilight 6:50 AM EDT 7:19 PM EDT
Nautical Twilight 6:21 AM EDT 7:48 PM EDT
Astronomical Twilight 5:52 AM EDT 8:17 PM EDT
Moon 8:51 AM EDT (10/6) 8:00 PM EDT (10/6)
Length of Visible Light 12h 29m
Length of Day
11h 39m
Waxing Crescent, 3% of the Moon is Illuminated
Oct 6
Waxing Crescent
Oct 11
First Quarter
Oct 18
Full
Oct 26
Last Quarter
Nov 3
New

Hourly Weather History & Observations

Time (EDT) Temp. Heat Index Dew Point Humidity Pressure Visibility Wind Dir Wind Speed Gust Speed Precip Events Conditions
12:15 AM 68.0 °F - 68.0 °F 100% 30.07 in 10.0 mi Calm Calm - N/A   Clear
12:35 AM 68.0 °F - 68.0 °F 100% 30.07 in 10.0 mi Calm Calm - N/A   Clear
12:55 AM 66.2 °F - 66.2 °F 100% 30.07 in 5.0 mi Calm Calm - N/A   Clear
1:15 AM 64.4 °F - 64.4 °F 100% 30.06 in 10.0 mi Calm Calm - N/A   Clear
1:35 AM 64.4 °F - 64.4 °F 100% 30.06 in 10.0 mi Calm Calm - N/A   Clear
1:55 AM 66.2 °F - 66.2 °F 100% 30.06 in 10.0 mi Calm Calm - N/A   Scattered Clouds
2:15 AM 64.4 °F - 64.4 °F 100% 30.05 in 1.2 mi Calm Calm - N/A   Mist
2:35 AM 64.4 °F - 64.4 °F 100% 30.05 in 7.0 mi Calm Calm - N/A   Clear
2:55 AM 64.4 °F - 64.4 °F 100% 30.04 in 1.2 mi Calm Calm - N/A   Mostly Cloudy
3:15 AM - - - N/A% 30.03 in 1.0 mi Calm Calm - N/A   Mostly Cloudy
3:35 AM - - - N/A% 30.03 in 7.0 mi Calm Calm - N/A   Scattered Clouds
3:55 AM - - - N/A% 30.03 in 1.0 mi Calm Calm - N/A   Overcast
4:15 AM - - - N/A% 30.03 in 7.0 mi Calm Calm - N/A   Mostly Cloudy
4:35 AM - - - N/A% 30.03 in 0.8 mi Calm Calm - N/A   Overcast
4:55 AM - - - N/A% 30.02 in 0.2 mi Calm Calm - N/A Fog Fog
5:15 AM - - - N/A% 30.02 in 3.0 mi Calm Calm - N/A   Overcast
5:35 AM - - - N/A% 30.02 in 0.5 mi Calm Calm - N/A Fog Fog
5:55 AM - - - N/A% 30.02 in 0.2 mi Calm Calm - N/A Fog Fog
6:15 AM - - - N/A% 30.03 in 0.2 mi Calm Calm - N/A Fog Fog
6:35 AM - - - N/A% 30.03 in 0.8 mi Calm Calm - N/A   Overcast
6:55 AM - - - N/A% 30.03 in 1.2 mi Calm Calm - N/A   Overcast
7:15 AM - - - N/A% 30.03 in 0.2 mi Calm Calm - N/A Fog Fog
7:35 AM - - - N/A% 30.03 in 0.2 mi Calm Calm - N/A Fog Fog
7:55 AM - - - N/A% 30.04 in 0.5 mi Calm Calm - N/A Fog Fog
8:15 AM - - - N/A% 30.04 in 4.0 mi Calm Calm - N/A   Haze
8:35 AM - - - N/A% 30.04 in 5.0 mi Calm Calm - N/A   Haze
8:55 AM 71.6 °F - 71.6 °F 100% 30.05 in 10.0 mi Calm Calm - N/A   Clear
9:15 AM - - - N/A% 30.05 in 10.0 mi Calm Calm - N/A   Clear
9:35 AM 77.0 °F - 77.0 °F 100% 30.05 in 10.0 mi East 4.6 mph - N/A   Clear
9:55 AM 77.0 °F - 77.0 °F 100% 30.06 in 10.0 mi ESE 5.8 mph - N/A   Scattered Clouds
10:15 AM 80.6 °F 87.1 °F 77.0 °F 89% 30.06 in 10.0 mi SE 5.8 mph - N/A   Mostly Cloudy
10:35 AM 77.0 °F - 75.2 °F 94% 30.06 in 10.0 mi ESE 3.5 mph - N/A   Mostly Cloudy
10:55 AM 78.8 °F - 75.2 °F 89% 30.05 in 10.0 mi ESE 5.8 mph - N/A   Mostly Cloudy
11:15 AM 80.6 °F 86.2 °F 75.2 °F 84% 30.05 in 10.0 mi ESE 10.4 mph - N/A   Overcast
11:35 AM 80.6 °F 85.4 °F 73.4 °F 79% 30.04 in 10.0 mi East 11.5 mph - N/A   Overcast
11:55 AM 78.8 °F - 73.4 °F 83% 30.04 in 10.0 mi ESE 11.5 mph - N/A   Overcast
12:15 PM 80.6 °F 86.2 °F 75.2 °F 84% 30.04 in 10.0 mi SSE 10.4 mph - N/A   Overcast
12:35 PM 82.4 °F 87.2 °F 71.6 °F 70% 30.03 in 10.0 mi SSE 8.1 mph - N/A   Mostly Cloudy
12:55 PM 82.4 °F 87.2 °F 71.6 °F 70% 30.02 in 10.0 mi SE 10.4 mph - N/A   Scattered Clouds
1:15 PM 82.4 °F 87.2 °F 71.6 °F 70% 30.02 in 10.0 mi SSE 6.9 mph - N/A   Clear
1:35 PM 80.6 °F 85.4 °F 73.4 °F 79% 30.01 in 10.0 mi East 10.4 mph - N/A   Mostly Cloudy
1:55 PM 82.4 °F 88.2 °F 73.4 °F 74% 30.00 in 10.0 mi South 8.1 mph - N/A   Scattered Clouds
2:15 PM 82.4 °F 87.2 °F 71.6 °F 70% 30.00 in 10.0 mi ESE 8.1 mph - N/A   Clear
2:35 PM 80.6 °F 85.4 °F 73.4 °F 79% 29.99 in 10.0 mi ESE 9.2 mph - N/A   Clear
2:55 PM 80.6 °F 85.4 °F 73.4 °F 79% 29.99 in 10.0 mi ESE 9.2 mph - N/A   Scattered Clouds
3:15 PM 80.6 °F 84.6 °F 71.6 °F 74% 29.98 in 10.0 mi SSE 4.6 mph - N/A   Scattered Clouds
3:35 PM 80.6 °F 84.6 °F 71.6 °F 74% 29.98 in 10.0 mi SE 6.9 mph - N/A   Scattered Clouds
3:55 PM 82.4 °F 88.2 °F 73.4 °F 74% 29.98 in 10.0 mi East 9.2 mph - N/A   Scattered Clouds
4:15 PM 80.6 °F 84.6 °F 71.6 °F 74% 29.98 in 10.0 mi East 6.9 mph - N/A   Mostly Cloudy
4:35 PM 80.6 °F 84.6 °F 71.6 °F 74% 29.97 in 10.0 mi ESE 8.1 mph - N/A   Mostly Cloudy
4:55 PM 77.0 °F - 73.4 °F 89% 29.98 in 4.0 mi ESE 10.4 mph - 0.05 in Rain Heavy Rain
5:15 PM 75.2 °F - 75.2 °F 100% 29.98 in 10.0 mi ESE 6.9 mph - 0.01 in Rain Rain
5:35 PM 75.2 °F - 75.2 °F 100% 29.98 in 10.0 mi East 8.1 mph - 0.01 in   Mostly Cloudy
5:55 PM 75.2 °F - 75.2 °F 100% 29.97 in 10.0 mi ESE 6.9 mph - 0.01 in   Mostly Cloudy
6:15 PM 75.2 °F - 75.2 °F 100% 29.97 in 10.0 mi ESE 8.1 mph - N/A   Mostly Cloudy
6:35 PM 73.4 °F - 73.4 °F 100% 29.96 in 10.0 mi ESE 9.2 mph - N/A   Scattered Clouds
6:55 PM 73.4 °F - 73.4 °F 100% 29.97 in 10.0 mi SE 5.8 mph - N/A   Scattered Clouds
7:15 PM 73.4 °F - 73.4 °F 100% 29.97 in 10.0 mi ESE 5.8 mph - N/A   Clear
7:35 PM 73.4 °F - 73.4 °F 100% 29.97 in 10.0 mi SSE 4.6 mph - N/A   Clear
7:55 PM 71.6 °F - 71.6 °F 100% 29.98 in 10.0 mi ESE 5.8 mph - N/A   Clear
8:15 PM 71.6 °F - 71.6 °F 100% 29.98 in 10.0 mi SE 8.1 mph - N/A   Clear
8:35 PM 71.6 °F - 71.6 °F 100% 29.99 in 10.0 mi ESE 9.2 mph - N/A   Mostly Cloudy
8:55 PM 73.4 °F - 73.4 °F 100% 29.98 in 10.0 mi ESE 10.4 mph - N/A   Mostly Cloudy
9:15 PM 73.4 °F - 73.4 °F 100% 29.99 in 10.0 mi SE 11.5 mph - N/A   Clear
9:35 PM 71.6 °F - 71.6 °F 100% 29.98 in 10.0 mi SE 6.9 mph - N/A   Scattered Clouds
9:55 PM 71.6 °F - 71.6 °F 100% 29.98 in 10.0 mi SE 5.8 mph - N/A   Scattered Clouds
10:15 PM 73.4 °F - 73.4 °F 100% 29.99 in 10.0 mi SSE 8.1 mph - N/A   Mostly Cloudy
10:35 PM 71.6 °F - 71.6 °F 100% 29.98 in 10.0 mi ESE 6.9 mph - N/A   Mostly Cloudy
10:55 PM 71.6 °F - 71.6 °F 100% 29.97 in 10.0 mi SE 8.1 mph - N/A   Scattered Clouds
11:15 PM 71.6 °F - 71.6 °F 100% 29.97 in 10.0 mi SE 8.1 mph - N/A   Mostly Cloudy
11:35 PM 71.6 °F - 71.6 °F 100% 29.97 in 10.0 mi SE 8.1 mph - N/A   Overcast
11:55 PM 71.6 °F - 71.6 °F 100% 29.96 in 10.0 mi SE 4.6 mph - N/A   Mostly Cloudy